Location: Penum?ka
(16.4840°N, 80.5772°E)
Time: 02:04:23
(UTC+00:00)

Cosmos 2369 Rocket - Pass Details

Date: 19 May 2025
Orbit: 827 x 852 km, 71.0° (Epoch: 24 June)

Event Time Altitude Azimuth Distance (km) Brightness Sun altitude
Rises 13:23:24 0° 356° (N) 3,406 5.7 -5.5°
Reaches altitude 10° 13:26:04 10° 5° (N) 2,467 4.9 -6.1°
Maximum altitude 13:31:13 36° 71° (ENE) 1,320 2.9 -7.2°
Drops below altitude 10° 13:36:19 10° 136° (SE) 2,449 4.0 -8.3°
Enters shadow 13:37:02 - 139° (SE) 2,698 4.3 -8.5°
